DW1458 Weather Reports


Display with metric or nautical units.
time (UTC)temp
F
wind
direction
speed
MPH
gust
MPH
rain 1hr
in
rain 24hr
in
rain mn
in
humidity
%
barometer
mb
20260503031514 54 323 0.0 0.0 0.03 0.26 0.23 77 1018.6
20260503030013 55 323 0.0 0.0 0.02 0.25 0.22 74 1018.4
20260503024514 56 323 0.0 0.0 0.02 0.24 0.21 72 1018.3
20260503023008 57 323 0.0 0.0 0.01 0.24 0.20 70 1018.0
20260503020014 60 323 0.0 0.0 0.01 0.25 0.20 62 1017.6
20260503014522 61 8 0.0 1.0 0.01 0.24 0.19 61 1017.4
20260503013014 62 324 0.0 0.0 0.01 0.24 0.19 58 1017.3
20260503011513 63 328 1.0 4.0 0.01 0.25 0.19 54 1017.1
20260503010017 64 338 1.0 4.0 0.01 0.25 0.19 54 1016.5
20260503004524 65 352 0.0 3.0 0.00 0.25 0.18 52 1016.4
20260503003007 66 258 0.0 8.0 0.00 0.25 0.18 48 1015.8
20260503001510 67 343 3.0 7.0 0.01 0.26 0.18 46 1015.5
20260502234520 69 335 4.0 8.0 0.01 0.27 0.18 46 1015.0
20260502233020 69 356 4.0 9.0 0.01 0.28 0.18 45 1015.1
20260502224517 71 303 7.0 12.0 0.01 0.29 0.17 44 1014.7
20260502223018 72 337 4.0 10.0 0.01 0.29 0.17 46 1014.6
20260502221520 72 319 5.0 11.0 0.01 0.30 0.17 44 1014.5
20260502213018 73 354 4.0 11.0 0.01 0.30 0.16 53 1014.0
20260502211535 73 298 4.0 10.0 0.01 0.30 0.16 52 1013.8
20260502210020 73 310 6.0 12.0 0.01 0.30 0.16 52 1013.9
20260502201521 71 316 5.0 12.0 0.01 0.29 0.15 61 1014.2
20260502200026 71 314 5.0 10.0 0.01 0.29 0.15 59 1014.4
20260502194511 71 349 5.0 10.0 0.01 0.29 0.15 58 1014.4
20260502184509 70 1 4.0 9.0 0.01 0.28 0.14 63 1014.9
20260502183034 70 304 3.0 14.0 0.01 0.28 0.14 64 1015.2
20260502181503 70 300 6.0 14.0 0.01 0.27 0.13 63 1015.1
20260502161516 64 359 7.0 17.0 0.01 0.25 0.11 77 1015.3
20260502151515 61 134 3.0 12.0 0.01 0.24 0.10 82 1014.8
20260502123023 54 350 1.0 9.0 0.01 0.21 0.07 93 1013.4
20260502121526 53 34 1.0 5.0 0.01 0.21 0.07 93 1013.1
20260502113026 53 149 2.0 6.0 0.01 0.20 0.06 93 1012.9
20260502111523 53 203 2.0 9.0 0.01 0.20 0.06 93 1013.0
20260502110010 53 104 2.0 8.0 0.01 0.20 0.06 93 1013.2
20260502104520 53 280 2.0 10.0 0.01 0.20 0.06 93 1012.8
20260502101541 54 217 2.0 6.0 0.01 0.19 0.05 93 1012.2
20260502091523 55 359 1.0 8.0 0.01 0.18 0.04 93 1011.9
20260502071520 55 262 1.0 5.0 0.01 0.16 0.02 93 1010.9
20260502070005 55 112 3.0 8.0 0.01 0.16 0.02 93 1010.9
20260502064508 55 345 1.0 5.0 0.01 0.16 0.02 93 1011.7
20260502063011 55 112 2.0 11.0 0.01 0.15 0.01 93 1011.3
20260502061516 55 58 1.0 5.0 0.01 0.15 0.01 93 1012.5
20260502060023 55 122 1.0 6.0 0.01 0.15 0.01 93 1012.5
20260502054505 55 79 3.0 7.0 0.02 0.15 0.01 93 1012.2
20260502053013 55 302 1.0 6.0 0.01 0.14 0.00 93 1012.6
20260502051517 55 212 1.0 6.0 0.01 0.14 0.00 93 1012.2
20260502050020 55 341 1.0 4.0 0.02 0.14 0.00 93 1012.4
20260502044523 55 352 1.0 2.0 0.01 0.13 0.13 93 1012.6
20260502043008 55 233 1.0 8.0 0.01 0.13 0.13 93 1012.5
20260502041513 55 115 2.0 6.0 0.02 0.13 0.13 93 1012.8
20260502040017 55 175 3.0 9.0 0.01 0.12 0.12 93 1012.7
20260502034526 55 155 4.0 9.0 0.01 0.12 0.12 93 1012.2
20260502033021 56 126 4.0 8.0 0.02 0.12 0.12 93 1013.1